Change the Weather History Date:

Tuesday, November 25, 2014

  Actual Average Record
Temperature  
Mean Temperature 21 °F 27 °F  
Max Temperature 34 °F 36 °F 70 °F (1960)
Min Temperature 8 °F 18 °F -9 °F (1977)
Degree Days  
Heating Degree Days 44 38  
Month to date heating degree days 902 774  
Since 1 July heating degree days 1621 1523  
Cooling Degree Days 0 0  
Month to date cooling degree days 0 0  
Year to date cooling degree days 435 593  
Moisture  
Dew Point 10 °F    
Average Humidity 56    
Maximum Humidity 80    
Minimum Humidity 32    
Precipitation  
Precipitation T in 0.06 in 0.35 in (1951)
Month to date precipitation 0.18 1.42  
Sea Level Pressure  
Sea Level Pressure 30.06 in    
Wind  
Wind Speed 11 mph (SSW)    
Max Wind Speed 20 mph    
Max Gust Speed 25 mph    
Visibility 10 miles    
Events Snow    
T = Trace of Precipitation, MM = Missing Value Source: NWS Daily Summary

Daily Weather History Graph

Daily Weather History Graph

Search for Another Location

Airport or City:

Trip Planner

Search our weather history database for the weather conditions in past years. The results will help you decide how hot, cold, wet, or windy it might be!

Date:

Astronomy

Nov. 25, 2014 Rise Set
Actual Time 7:24 AM CST 4:46 PM CST
Civil Twilight 6:53 AM CST 5:18 PM CST
Nautical Twilight 6:18 AM CST 5:53 PM CST
Astronomical Twilight 5:43 AM CST 6:27 PM CST
Moon 10:09 AM CST (11/25) 8:14 PM CST (11/25)
Length of Visible Light 10h 25m
Length of Day
9h 21m
Waxing Crescent, 13% of the Moon is Illuminated
Nov 25
Waxing Crescent
Nov 29
First Quarter
Dec 6
Full
Dec 14
Last Quarter
Dec 21
New

Hourly Weather History & Observations

Time (CST) Temp. Windchill Dew Point Humidity Pressure Visibility Wind Dir Wind Speed Gust Speed Precip Events Conditions
12:52 AM 15.1 °F -0.1 °F 9.0 °F 77% 30.06 in 10.0 mi NW 15.0 mph - N/A   Clear
1:52 AM 14.0 °F -1.4 °F 8.1 °F 77% 30.07 in 10.0 mi NW 15.0 mph - N/A   Clear
2:52 AM 14.0 °F -0.2 °F 8.1 °F 77% 30.09 in 10.0 mi NW 12.7 mph - N/A   Clear
3:52 AM 12.9 °F -1.6 °F 7.0 °F 77% 30.11 in 10.0 mi WNW 12.7 mph - N/A   Clear
4:52 AM 10.9 °F -1.8 °F 5.0 °F 77% 30.12 in 10.0 mi WNW 9.2 mph - N/A   Clear
5:52 AM 10.9 °F -0.8 °F 5.0 °F 77% 30.11 in 10.0 mi WNW 8.1 mph - N/A   Clear
6:52 AM 9.0 °F -0.9 °F 3.0 °F 77% 30.11 in 10.0 mi WSW 5.8 mph - N/A   Clear
7:52 AM 10.9 °F 0.2 °F 5.0 °F 77% 30.11 in 10.0 mi SW 6.9 mph - N/A   Mostly Cloudy
8:52 AM 15.1 °F 5.2 °F 7.0 °F 70% 30.10 in 10.0 mi SSW 6.9 mph - N/A   Clear
9:52 AM 19.9 °F 10.1 °F 8.1 °F 60% 30.12 in 10.0 mi WSW 8.1 mph - N/A   Clear
10:52 AM 24.1 °F 15.2 °F 8.1 °F 51% 30.14 in 10.0 mi WSW 8.1 mph - N/A   Clear
11:52 AM 28.0 °F 20.8 °F 8.1 °F 43% 30.10 in 10.0 mi SW 6.9 mph - N/A   Clear
12:52 PM 30.9 °F 22.8 °F 8.1 °F 38% 30.07 in 10.0 mi SSW 9.2 mph 16.1 mph N/A   Mostly Cloudy
1:52 PM 33.1 °F 24.4 °F 7.0 °F 34% 30.05 in 10.0 mi South 11.5 mph - N/A   Overcast
2:52 PM 33.1 °F 24.4 °F 8.1 °F 35% 30.03 in 10.0 mi South 11.5 mph - N/A   Clear
3:52 PM 30.9 °F 20.7 °F 10.0 °F 42% 30.02 in 10.0 mi SSE 13.8 mph - N/A   Clear
4:52 PM 28.0 °F 18.6 °F 12.9 °F 53% 30.02 in 10.0 mi SSE 10.4 mph - N/A   Clear
5:52 PM 26.1 °F 15.6 °F 15.1 °F 63% 30.02 in 10.0 mi SSE 11.5 mph - N/A   Clear
6:52 PM 26.1 °F 14.0 °F 15.1 °F 63% 30.01 in 10.0 mi SSE 15.0 mph - N/A   Clear
7:52 PM 26.1 °F 14.5 °F 15.1 °F 63% 30.00 in 10.0 mi SSE 13.8 mph - N/A   Clear
8:52 PM 27.0 °F 14.7 °F 15.1 °F 61% 29.99 in 10.0 mi SSE 16.1 mph - N/A   Overcast
9:52 PM 27.0 °F 14.7 °F 16.0 °F 63% 29.97 in 10.0 mi SE 16.1 mph - N/A   Overcast
10:52 PM 27.0 °F 15.2 °F 16.0 °F 63% 29.96 in 10.0 mi SSE 15.0 mph - N/A   Overcast
11:52 PM 26.1 °F 14.0 °F 19.0 °F 75% 29.95 in 4.0 mi SSE 15.0 mph - 0.00 in Snow Light Snow